Location: Stonelick Lake State Park
(39.2170°N, 84.0850°W)
Time: 04:52:52
(UTC-04:00)

Daily predictions for brighter satellites

Satellite Brightness Start Highest point End
(mag) Time Altitude Azimuth Time Altitude Azimuth Time Altitude Azimuth
Lacrosse 5 3.7 00:06:57 10° NNW 00:09:43 28° N 00:09:43 28° N
Cosmos 1943 Rocket 3.7 00:33:17 10° NNW 00:36:08 32° NNW 00:36:08 32° NNW
Cosmos 2369 Rocket 4.3 01:05:07 10° NW 01:07:06 20° NW 01:07:06 20° NW
ADEOS Rocket 4.2 01:17:37 10° NNE 01:21:59 41° NNE 01:21:59 41° NNE
Mayak 2.0 01:33:20 10° N 01:33:35 11° N 01:33:35 11° N
ATLAS 5 CENTAUR R/B 4.5 01:34:02 10° NW 01:35:41 18° WNW 01:35:41 18° WNW
CZ-2D R/B 4.0 02:44:15 10° NE 02:47:20 23° ENE 02:47:20 23° ENE
SL-16 R/B 3.6 02:51:48 36° E 02:52:33 37° ENE 02:58:13 10° N
Cosmos 1980 Rocket 4.2 02:51:17 10° N 02:55:44 23° NE 02:58:11 18° E
Cosmos 1697 Rocket 3.8 02:53:06 10° N 02:57:47 39° NE 02:57:47 39° NE
Cosmos 2082 Rocket 3.2 03:06:40 42° NE 03:06:40 42° NE 03:10:28 10° NNE
Nadezhda 4 Rocket 4.4 03:09:17 10° N 03:13:59 55° N 03:13:59 55° N
Cosmos 1634 Rocket 4.3 03:24:53 59° E 03:24:53 59° E 03:30:48 10° NNE
Resurs 1-4 Rocket 3.0 03:19:32 10° NNE 03:23:33 45° ENE 03:23:33 45° ENE
NPP 4.2 03:30:26 10° N 03:34:34 54° N 03:34:34 54° N
Cosmos 1833 Rocket 3.3 03:41:36 49° NNW 03:41:36 49° NNW 03:46:07 10° NNE
Lacrosse 4 Rocket 4.0 03:40:38 10° NNW 03:41:23 15° NNW 03:41:23 15° NNW
Cosmos 2208 Rocket 4.4 03:46:29 60° ENE 03:46:29 60° ENE 03:50:59 10° NNE
Cosmos 2026 Rocket 4.2 03:42:08 10° N 03:48:31 70° E 03:49:30 60° SE
Cosmos 1898 Rocket 4.5 03:45:38 10° N 03:50:36 43° ENE 03:52:29 31° ESE
Iridium 4 Rocket 4.5 04:00:48 31° NNW 04:00:48 31° NNW 04:03:17 10° N
Cosmos 1570 Rocket 4.2 04:00:10 67° N 04:00:10 67° N 04:04:51 10° NNE
Cosmos 724 4.3 04:05:15 63° SE 04:05:37 65° ESE 04:11:21 10° NE
Cosmos 2360 4.1 04:00:39 10° NNW 04:06:23 83° ENE 04:07:09 67° SE
Cosmos 1356 Rocket 4.5 04:10:57 40° N 04:10:57 40° N 04:13:38 10° N
Cosmos 2195 Rocket 4.3 04:03:39 10° NNW 04:09:46 69° W 04:09:49 69° W
Lacrosse 5 rocket 3.1 04:11:25 25° NNW 04:11:25 25° NNW 04:14:19 10° NNE
Cosmos 468 Rocket 3.9 04:12:09 89° ESE 04:12:09 89° ESE 04:17:29 10° NNE
ARIANE 5 R/B 2.4 04:08:25 10° NNE 04:13:41 85° WNW 04:13:42 85° W
Spot 4 Rocket 3.9 04:09:17 10° N 04:14:22 80° WNW 04:14:22 80° WNW
Cosmos 1066 Rocket 4.1 04:18:27 64° WNW 04:18:27 64° WNW 04:23:45 10° N
USA 238 DEB 4.0 04:17:40 43° S 04:19:45 60° ESE 04:26:33 10° NE
USA 238 4.0 04:17:45 42° S 04:19:51 59° ESE 04:26:39 10° NE
Cosmos 1814 Rocket 4.2 04:20:50 56° SE 04:21:34 63° ESE 04:26:41 10° NNE
Cosmos 1655 Rocket 4.0 04:18:37 10° N 04:25:02 89° E 04:27:55 36° S
Helios 1A Rocket 3.1 04:23:41 10° N 04:27:22 68° N 04:27:22 68° N
CZ-2D R/B 2.8 04:23:47 10° N 04:28:39 39° WNW 04:28:39 39° WNW
CZ-2D R/B 3.5 04:24:55 10° NNE 04:28:56 75° E 04:28:56 75° E
Meteor 1-21 4.3 04:33:26 38° S 04:35:38 74° E 04:41:15 10° NNE
Cosmos 1726 Rocket 3.5 04:31:35 10° N 04:35:31 69° NW 04:35:31 69° NW
SL-16 R/B 3.3 04:36:53 33° W 04:36:53 33° W 04:41:46 10° NNW
Cosmos 2298 Rocket 4.3 04:31:38 10° NNW 04:36:57 67° ENE 04:42:13 10° SSE
IRS-1D 4.3 04:35:10 10° N 04:39:53 36° WNW 04:40:00 36° WNW
Cosmos 1980 Rocket 2.3 04:34:35 10° NNW 04:39:51 50° WSW 04:39:51 50° WSW
Cosmos 1428 Rocket 4.5 04:35:46 10° NNW 04:41:48 59° W 04:43:28 44° SW
Cosmos 1697 Rocket 4.3 04:37:30 10° NW 04:39:27 19° WNW 04:39:27 19° WNW
Cosmos 2082 Rocket 3.8 04:48:31 18° WNW 04:49:28 19° NW 04:53:23 10° N
ADEOS II 2.2 04:44:17 10° NNE 04:49:33 72° ESE 04:52:21 28° S
Cosmos 841 Rocket 3.4 04:48:23 43° SSW 04:50:09 85° ESE 04:55:23 10° NNE
ADEOS 3.5 04:46:34 10° N 04:51:45 66° WNW 04:53:17 44° SW
SL-16 R/B 2.5 04:47:29 10° NNW 04:53:10 68° ENE 04:58:47 10° SSE
UNKNOWN OBJECT B 3.0 04:50:17 10° N 04:53:49 50° WNW 04:53:49 50° WNW
Cosmos 1602 Rocket 4.2 04:53:48 22° SSE 04:56:24 53° E 05:00:37 10° NNE
NOSS 3-2 (C) 4.3 04:53:13 19° S 04:57:05 42° ESE 05:03:01 10° NE
Cosmos 2058 Rocket 3.0 04:52:49 10° NNW 04:57:12 63° W 04:58:12 48° SSW
Cosmos 1470 4.3 04:56:53 10° N 05:00:36 36° ENE 05:04:15 10° SE
Cosmos 2228 3.1 04:57:01 10° NNW 05:01:09 50° W 05:01:27 49° WSW
Resurs 1-4 Rocket 3.6 05:00:30 10° NNW 05:04:04 19° WNW 05:04:38 18° WNW
Cosmos 540 Rocket 3.7 05:02:52 22° S 05:06:07 67° ESE 05:11:15 10° NNE
ATLAS 3B R/B 2.7 05:03:32 29° SW 05:07:31 80° WNW 05:14:30 10° NNE
Cosmos 2322 Rocket 2.2 05:02:59 10° NNW 05:08:40 86° ENE 05:14:17 10° SSE
Cosmos 1626 Rocket 3.5 05:06:34 28° S 05:08:49 86° E 05:13:10 10° N
NOSS 3-2 (A) 3.4 05:10:13 25° SSW 05:13:46 81° ESE 05:20:14 10° NE
Cosmos 292 Rocket 3.7 05:13:38 31° SSW 05:15:56 70° WNW 05:20:44 10° NNE
SJ 16-02 2.3 05:12:06 10° N 05:16:23 48° ENE 05:20:39 10° SE
Cosmos 1763 Rocket 4.2 05:14:42 29° WSW 05:16:32 39° WNW 05:21:30 10° N
Cosmos 1707 3.7 05:13:05 10° SSE 05:16:48 47° E 05:20:33 10° NNE
Cosmos 1842 4.0 05:16:46 33° W 05:17:07 33° WNW 05:20:45 10° NNW
Cosmos 1378 3.4 05:14:36 19° S 05:17:08 68° E 05:20:53 10° NNE
ATLAS CENTAUR R/B 3.8 05:18:07 10° N 05:21:57 28° NE 05:25:57 10° ESE
USA 215 3.2 05:21:29 10° NE 05:28:03 85° NW 05:32:57 19° SW
CENTAUR R/B 4.0 05:23:27 10° S 05:28:27 31° ESE 05:34:01 10° NE
H-II Stage 2 4.1 05:30:22 17° SSW 05:33:55 36° SSE 05:53:32 10° E
Cosmos 1805 4.4 05:30:53 10° NW 05:34:02 24° W 05:34:26 23° W
Cosmos 1953 2.3 05:31:06 10° NNW 05:35:09 66° W 05:39:10 10° S
PSLV R/B 4.1 05:32:30 10° NNE 05:36:20 65° E 05:40:03 10° S
Cosmos 44 3.7 05:32:28 10° NW 05:37:29 45° WSW 05:42:36 10° S
Nadezhda 2 Rocket 4.5 05:35:35 10° N 05:41:54 82° W 05:48:17 10° S
Cosmos 1125 Rocket 3.6 05:40:13 10° NNW 05:45:34 85° ENE 05:50:51 10° SSE
Aureole 2 Rocket 2.6 05:44:36 10° NNW 05:48:25 85° ENE 05:51:57 10° SSE
Meteor 1-28 Rocket 4.3 05:46:06 10° SSE 05:49:42 49° ENE 05:53:21 10° N
Cosmos 2322 4.4 05:45:23 10° NNW 05:51:04 61° ENE 05:56:42 10° SE
PSLV R/B 3.2 05:49:55 21° SW 05:51:42 58° SSE 05:54:40 10° E
Okean O Rocket 1.9 05:52:33 10° NNE 05:56:55 68° ESE 06:01:13 10° S
ERBS 2.3 05:55:23 14° SW 05:58:14 83° SE 06:01:38 10° NE
Cosmos 1825 Rocket 3.5 05:54:33 10° S 05:58:53 87° WNW 06:03:12 10° N
USA 267 4.5 05:55:35 10° ESE 06:01:42 44° NNE 06:07:49 10° NW
CRYOSAT 2 4.3 05:58:19 10° S 06:03:09 77° W 06:08:02 10° N
Cosmos 1417 Rocket 4.5 06:00:01 10° S 06:06:09 81° W 06:12:24 10° N
Cosmos 44 Rocket 4.0 06:01:48 10° NW 06:06:29 36° WSW 06:11:11 10° S
Cosmos 372 Rocket 4.1 06:04:20 10° NNW 06:09:24 53° WSW 06:14:24 10° S
Meteor 2-5 Rocket 3.7 06:05:20 10° S 06:10:51 84° W 06:16:29 10° N
Cosmos 1745 Rocket 4.1 06:15:15 10° N 06:21:29 85° E 06:27:45 10° S
Cosmos 2360 Rocket 2.3 06:16:02 10° NNW 06:21:32 55° WSW 06:26:59 10° S
S3M 4.0 06:17:10 10° S 06:23:17 77° W 06:29:26 10° N
Cosmos 1953 Rocket 3.6 06:20:29 10° SSW 06:24:55 64° W 06:29:22 10° N
Cosmos 2219 3.8 06:21:34 10° S 06:27:10 63° ESE 06:32:51 10° NNE
